| time (UTC) | temp C | wind direction | speed KPH | gust KPH | rain 1hr cm | rain 24hr cm | rain mn cm | humidity % | barometer mb |
| 20260505211549 | 11 | 284 | 22.5 | 0.0 | 0.00 | 0.00 | 0.00 | 40 | 980.2 |
| 20260505210124 | 11 | 283 | 20.9 | 0.0 | 0.00 | 0.00 | 0.00 | 40 | 980.2 |
| 20260505204550 | 11 | 281 | 20.9 | 0.0 | 0.00 | 0.00 | 0.00 | 41 | 980.6 |
| 20260505203111 | 11 | 279 | 20.9 | 0.0 | 0.00 | 0.00 | 0.00 | 41 | 980.0 |
| 20260505201550 | 11 | 279 | 22.5 | 0.0 | 0.00 | 0.00 | 0.00 | 36 | 979.6 |
| 20260505200120 | 11 | 280 | 22.5 | 0.0 | 0.00 | 0.00 | 0.00 | 36 | 979.6 |
| 20260505194549 | 11 | 276 | 22.5 | 0.0 | 0.00 | 0.00 | 0.00 | 34 | 979.5 |
| 20260505193106 | 12 | 277 | 20.9 | 0.0 | 0.00 | 0.00 | 0.00 | 34 | 979.5 |
| 20260505191552 | 12 | 275 | 20.9 | 0.0 | 0.00 | 0.00 | 0.00 | 34 | 979.5 |
| 20260505190120 | 12 | 271 | 20.9 | 0.0 | 0.00 | 0.00 | 0.00 | 34 | 979.5 |
| 20260505184552 | 12 | 268 | 20.9 | 0.0 | 0.00 | 0.00 | 0.00 | 36 | 980.3 |
| 20260505183115 | 12 | 274 | 22.5 | 0.0 | 0.00 | 0.00 | 0.00 | 37 | 979.4 |
| 20260505181552 | 12 | 276 | 20.9 | 0.0 | 0.00 | 0.00 | 0.00 | 37 | 979.4 |
| 20260505180127 | 12 | 277 | 20.9 | 0.0 | 0.00 | 0.00 | 0.00 | 37 | 979.4 |
| 20260505174552 | 12 | 273 | 20.9 | 0.0 | 0.00 | 0.00 | 0.00 | 37 | 978.7 |
| 20260505173108 | 12 | 277 | 20.9 | 0.0 | 0.00 | 0.00 | 0.00 | 37 | 977.8 |
| 20260505171553 | 12 | 282 | 19.3 | 0.0 | 0.00 | 0.00 | 0.00 | 37 | 977.8 |
| 20260505170125 | 12 | 284 | 19.3 | 0.0 | 0.00 | 0.00 | 0.00 | 37 | 977.8 |
| 20260505164553 | 11 | 287 | 19.3 | 0.0 | 0.00 | 0.00 | 0.00 | 42 | 979.0 |
| 20260505163111 | 10 | 286 | 20.9 | 0.0 | 0.00 | 0.00 | 0.00 | 43 | 977.0 |
| 20260505161553 | 10 | 284 | 19.3 | 0.0 | 0.00 | 0.00 | 0.00 | 43 | 977.0 |
| 20260505160126 | 10 | 273 | 17.7 | 0.0 | 0.00 | 0.00 | 0.00 | 43 | 977.0 |
| 20260505153114 | 10 | 274 | 19.3 | 0.0 | 0.00 | 0.00 | 0.00 | 44 | 977.8 |
| 20260505151552 | 10 | 280 | 19.3 | 0.0 | 0.00 | 0.00 | 0.00 | 44 | 977.8 |
| 20260505150135 | 10 | 285 | 19.3 | 0.0 | 0.00 | 0.00 | 0.00 | 44 | 977.8 |
| 20260505140135 | 10 | 285 | 20.9 | 0.0 | 0.00 | 0.00 | 0.00 | 41 | 977.6 |
| 20260505130126 | 10 | 300 | 19.3 | 0.0 | 0.00 | 0.00 | 0.00 | 60 | 977.5 |
| 20260505124551 | 10 | 303 | 19.3 | 0.0 | 0.00 | 0.00 | 0.00 | 71 | 976.8 |
| 20260505123111 | 9 | 308 | 11.3 | 0.0 | 0.00 | 0.00 | 0.00 | 74 | 975.1 |
| 20260505121552 | 9 | 302 | 14.5 | 0.0 | 0.00 | 0.00 | 0.00 | 74 | 975.1 |
| 20260505120140 | 8 | 301 | 14.5 | 0.0 | 0.00 | 0.00 | 0.00 | 74 | 975.1 |
| 20260505114552 | 8 | 278 | 16.1 | 0.0 | 0.00 | 0.00 | 0.00 | 70 | 975.3 |
| 20260505113109 | 8 | 274 | 16.1 | 0.0 | 0.00 | 0.00 | 0.00 | 70 | 973.8 |
| 20260505111552 | 8 | 281 | 11.3 | 0.0 | 0.00 | 0.00 | 0.00 | 70 | 973.8 |
| 20260505110131 | 8 | 277 | 14.5 | 0.0 | 0.00 | 0.00 | 0.00 | 70 | 973.8 |
| 20260505101551 | 10 | 265 | 16.1 | 0.0 | 0.00 | 0.00 | 0.00 | 57 | 972.5 |
| 20260505100129 | 10 | 271 | 17.7 | 0.0 | 0.00 | 0.00 | 0.00 | 57 | 972.5 |
| 20260505094551 | 10 | 274 | 16.1 | 0.0 | 0.00 | 0.00 | 0.00 | 61 | 972.8 |
| 20260505093114 | 10 | 269 | 12.9 | 0.0 | 0.00 | 0.00 | 0.00 | 59 | 972.6 |
| 20260505091552 | 10 | 264 | 14.5 | 0.0 | 0.00 | 0.00 | 0.00 | 59 | 972.6 |
| 20260505090133 | 10 | 267 | 17.7 | 0.0 | 0.00 | 0.00 | 0.00 | 59 | 972.6 |
| 20260505084549 | 10 | 277 | 17.7 | 0.0 | 0.00 | 0.00 | 0.00 | 74 | 972.7 |
| 20260505083110 | 11 | 272 | 16.1 | 0.0 | 0.00 | 0.00 | 0.00 | 78 | 971.9 |
| 20260505081551 | 11 | 263 | 14.5 | 0.0 | 0.00 | 0.00 | 0.00 | 78 | 971.9 |
| 20260505080123 | 11 | 260 | 11.3 | 0.0 | 0.00 | 0.00 | 0.00 | 64 | 971.9 |
| 20260505074552 | 11 | 258 | 14.5 | 0.0 | 0.00 | 0.00 | 0.00 | 75 | 971.5 |
| 20260505073112 | 11 | 255 | 14.5 | 0.0 | 0.00 | 0.00 | 0.00 | 75 | 971.5 |
| 20260505071552 | 12 | 251 | 16.1 | 0.0 | 0.00 | 0.00 | 0.00 | 75 | 971.5 |
| 20260505070126 | 12 | 242 | 14.5 | 0.0 | 0.00 | 0.00 | 0.00 | 75 | 971.5 |
| 20260505064551 | 12 | 252 | 17.7 | 0.0 | 0.00 | 0.00 | 0.00 | 77 | 971.8 |
| 20260505063108 | 12 | 245 | 17.7 | 0.0 | 0.00 | 0.00 | 0.00 | 77 | 971.3 |
| 20260505061553 | 13 | 242 | 19.3 | 0.0 | 0.00 | 0.00 | 0.00 | 77 | 971.3 |
| 20260505060139 | 13 | 242 | 19.3 | 0.0 | 0.00 | 0.00 | 0.00 | 77 | 971.3 |
| 20260505054552 | 13 | 235 | 19.3 | 0.0 | 0.00 | 0.00 | 0.00 | 76 | 972.3 |
| 20260505053115 | 14 | 251 | 16.1 | 0.0 | 0.00 | 0.00 | 0.00 | 68 | 971.0 |
| 20260505051551 | 15 | 234 | 17.7 | 0.0 | 0.00 | 0.00 | 0.00 | 68 | 971.0 |
| 20260505050124 | 15 | 238 | 17.7 | 0.0 | 0.00 | 0.00 | 0.00 | 68 | 971.0 |
| 20260505041551 | 15 | 202 | 20.9 | 0.0 | 0.00 | 0.00 | 0.00 | 70 | 970.9 |
| 20260505040129 | 15 | 193 | 24.1 | 0.0 | 0.00 | 0.00 | 0.00 | 70 | 970.9 |
| 20260505034548 | 16 | 217 | 27.4 | 0.0 | 0.00 | 0.00 | 0.00 | 63 | 970.7 |
| 20260505033111 | 15 | 199 | 20.9 | 0.0 | 0.00 | 0.00 | 0.00 | 64 | 970.7 |
| 20260505031551 | 16 | 191 | 24.1 | 0.0 | 0.00 | 0.00 | 0.00 | 64 | 970.7 |
| 20260505030125 | 16 | 198 | 25.7 | 0.0 | 0.00 | 0.00 | 0.00 | 64 | 970.7 |
| 20260505024552 | 16 | 204 | 22.5 | 0.0 | 0.00 | 0.00 | 0.00 | 62 | 971.1 |
| 20260505023111 | 16 | 213 | 25.7 | 0.0 | 0.00 | 0.00 | 0.00 | 56 | 971.1 |
| 20260505021550 | 16 | 214 | 24.1 | 0.0 | 0.00 | 0.00 | 0.00 | 56 | 971.1 |
| 20260505020125 | 16 | 214 | 30.6 | 0.0 | 0.00 | 0.00 | 0.00 | 56 | 971.1 |
| 20260505014551 | 17 | 211 | 29.0 | 0.0 | 0.00 | 0.00 | 0.00 | 70 | 970.4 |
| 20260505013109 | 17 | 214 | 27.4 | 0.0 | 0.00 | 0.00 | 0.00 | 70 | 970.4 |
| 20260505011552 | 17 | 211 | 27.4 | 0.0 | 0.00 | 0.00 | 0.00 | 70 | 970.4 |
| 20260505010122 | 17 | 216 | 25.7 | 0.0 | 0.00 | 0.00 | 0.00 | 70 | 970.4 |
| 20260505004551 | 17 | 203 | 25.7 | 0.0 | 0.00 | 0.00 | 0.00 | 44 | 970.5 |
| 20260505003107 | 18 | 206 | 22.5 | 0.0 | 0.00 | 0.00 | 0.00 | 47 | 971.1 |
| 20260505001550 | 18 | 196 | 17.7 | 0.0 | 0.00 | 0.00 | 0.00 | 47 | 971.1 |
| 20260505000132 | 19 | 198 | 12.9 | 0.0 | 0.00 | 0.00 | 0.00 | 47 | 971.1 |
| 20260504234551 | 20 | 212 | 11.3 | 0.0 | 0.00 | 0.00 | 0.00 | 40 | 971.2 |
| 20260504233110 | 20 | 231 | 12.9 | 0.0 | 0.00 | 0.00 | 0.00 | 37 | 971.1 |
| 20260504231551 | 20 | 241 | 12.9 | 0.0 | 0.00 | 0.00 | 0.00 | 37 | 971.0 |
| 20260504230118 | 21 | 250 | 16.1 | 0.0 | 0.00 | 0.00 | 0.00 | 37 | 971.0 |
| 20260504224551 | 21 | 254 | 19.3 | 0.0 | 0.00 | 0.00 | 0.00 | 37 | 971.0 |
| 20260504223112 | 21 | 252 | 24.1 | 0.0 | 0.00 | 0.00 | 0.00 | 39 | 971.1 |
| 20260504221551 | 21 | 253 | 24.1 | 0.0 | 0.00 | 0.00 | 0.00 | 39 | 971.1 |
| 20260504220128 | 22 | 250 | 25.7 | 0.0 | 0.00 | 0.00 | 0.00 | 39 | 971.1 |
| 20260504214550 | 22 | 243 | 29.0 | 0.0 | 0.00 | 0.00 | 0.00 | 38 | 972.2 |
| 20260504213112 | 22 | 235 | 29.0 | 0.0 | 0.00 | 0.00 | 0.00 | 38 | 972.2 |